Farmingdale, NY

1:11 AM EDT on March 27, 2017 (GMT -0400)
Republic

Weather History for KFRG - January, 2014

Change the Weather History Date:

Friday, January 10, 2014

  Actual Average Record
Temperature  
Mean Temperature 29 °F -  
Max Temperature 37 °F 36 °F 60 °F (2016)
Min Temperature 21 °F 24 °F 1 °F (2004)
Degree Days  
Heating Degree Days 36    
Moisture  
Dew Point 30 °F    
Average Humidity 90    
Maximum Humidity 100    
Minimum Humidity 63    
Precipitation  
Precipitation 0.03 in - - ()
Sea Level Pressure  
Sea Level Pressure 30.40 in    
Wind  
Wind Speed 1 mph (NNE)    
Max Wind Speed 5 mph    
Max Gust Speed -    
Visibility 4 miles    
Events Fog , Rain    
Averages and records for this station are not official NWS values.
T = Trace of Precipitation, MM = Missing Value Source: NWS Daily Summary

Daily Weather History Graph

Daily Weather History Graph

Search for Another Location

Airport or City:

Trip Planner

Search our weather history database for the weather conditions in past years. The results will help you decide how hot, cold, wet, or windy it might be!

Date:

Astronomy

Jan. 10, 2014 Rise Set
Actual Time 7:17 AM EST 4:45 PM EST
Civil Twilight 6:46 AM EST 5:15 PM EST
Nautical Twilight 6:12 AM EST 5:49 PM EST
Astronomical Twilight 5:39 AM EST 6:22 PM EST
Moon 12:48 PM EST (1/10) 2:21 AM EST (1/10)
Length of Visible Light 10h 29m
Length of Day
9h 28m
Waxing Gibbous, 75% of the Moon is Illuminated
Jan 10
Waxing Gibbous
Jan 15
Full
Jan 24
Last Quarter
Jan 30
New
Feb 6
First Quarter

Hourly Weather History & Observations

Time (EST) Temp. Windchill Dew Point Humidity Pressure Visibility Wind Dir Wind Speed Gust Speed Precip Events Conditions
12:53 AM 21.0 °F - 14.0 °F 74% 30.59 in 10.0 mi Calm Calm - N/A   Partly Cloudy
1:53 AM 21.9 °F 15.7 °F 15.1 °F 75% 30.58 in 10.0 mi NNE 4.6 mph - N/A   Overcast
2:41 AM 23.0 °F 18.4 °F 15.8 °F 74% 30.58 in 10.0 mi North 3.5 mph - N/A   Overcast
2:53 AM 24.1 °F 19.7 °F 17.1 °F 75% 30.58 in 10.0 mi NNE 3.5 mph - N/A   Overcast
3:13 AM 24.8 °F 19.1 °F 15.8 °F 69% 30.57 in 10.0 mi NNE 4.6 mph - N/A   Overcast
3:53 AM 25.0 °F 20.7 °F 17.1 °F 72% 30.56 in 10.0 mi NNE 3.5 mph - N/A   Overcast
4:53 AM 27.0 °F 21.6 °F 16.0 °F 63% 30.53 in 10.0 mi NNE 4.6 mph - N/A   Overcast
5:53 AM 27.0 °F - 18.0 °F 69% 30.51 in 10.0 mi Calm Calm - N/A   Overcast
6:53 AM 28.0 °F - 19.0 °F 69% 30.50 in 10.0 mi Calm Calm - N/A   Overcast
7:51 AM 28.4 °F - 21.2 °F 74% 30.49 in 10.0 mi Calm Calm - N/A   Overcast
7:53 AM 28.9 °F - 21.0 °F 72% 30.50 in 10.0 mi Calm Calm - N/A   Overcast
8:53 AM 30.9 °F 27.5 °F 23.0 °F 72% 30.50 in 10.0 mi NNE 3.5 mph - N/A   Overcast
9:30 AM 30.2 °F - 24.8 °F 80% 30.50 in 4.0 mi Calm Calm - 0.00 in   Overcast
9:53 AM 30.9 °F 27.5 °F 26.1 °F 82% 30.50 in 5.0 mi NNE 3.5 mph - 0.01 in Rain Light Freezing Rain
10:53 AM 32.0 °F - 28.9 °F 88% 30.48 in 4.0 mi Calm Calm - 0.01 in Rain Light Freezing Rain
11:18 AM 32.0 °F - 30.2 °F 93% 30.46 in 4.0 mi Calm Calm - 0.00 in Rain Light Freezing Rain
11:25 AM 32.0 °F - 30.2 °F 93% 30.45 in 4.0 mi Calm Calm - 0.00 in   Overcast
11:35 AM 32.0 °F - 30.2 °F 93% 30.45 in 3.0 mi Calm Calm - 0.00 in Rain Light Freezing Rain
11:45 AM 33.8 °F - 30.2 °F 87% 30.44 in 3.0 mi Calm Calm - 0.00 in Rain Light Freezing Rain
11:53 AM 33.1 °F - 32.0 °F 96% 30.44 in 3.0 mi Calm Calm - 0.00 in Rain Light Freezing Rain
12:03 PM 33.8 °F - 32.0 °F 93% 30.42 in 4.0 mi Calm Calm - 0.00 in   Overcast
12:53 PM 34.0 °F - 33.1 °F 96% 30.40 in 3.0 mi Calm Calm - 0.00 in   Overcast
1:53 PM 36.0 °F - 34.0 °F 93% 30.39 in 3.0 mi Calm Calm - N/A   Overcast
2:07 PM 37.4 °F - 35.6 °F 93% 30.38 in 2.0 mi Calm Calm - N/A   Overcast
2:15 PM 37.4 °F 34.9 °F 35.6 °F 93% 30.38 in 1.5 mi NE 3.5 mph - N/A   Overcast
2:53 PM 36.0 °F - 35.1 °F 97% 30.38 in 1.2 mi Calm Calm - N/A   Overcast
3:45 PM 35.6 °F - 35.6 °F 100% 30.37 in 1.2 mi Calm Calm - 0.00 in   Overcast
3:53 PM 36.0 °F - 36.0 °F 100% 30.37 in 1.2 mi Calm Calm - 0.00 in   Overcast
4:53 PM 36.0 °F - 36.0 °F 100% 30.35 in 1.2 mi Calm Calm - 0.00 in   Overcast
5:00 PM 35.6 °F - 35.6 °F 100% 30.35 in 1.5 mi Calm Calm - 0.00 in Rain Light Rain
5:29 PM 35.6 °F - 35.6 °F 100% 30.35 in 1.5 mi Calm Calm - 0.00 in   Overcast
5:53 PM 36.0 °F - 36.0 °F 100% 30.35 in 1.2 mi Calm Calm - 0.00 in   Overcast
6:15 PM 35.6 °F - 35.6 °F 100% 30.34 in 1.0 mi Calm Calm - N/A   Overcast
6:24 PM 37.4 °F - 35.6 °F 93% 30.34 in 1.0 mi Calm Calm - N/A   Overcast
6:34 PM 35.6 °F - 35.6 °F 100% 30.34 in 1.0 mi Calm Calm - N/A   Overcast
6:53 PM 36.0 °F - 36.0 °F 100% 30.34 in 0.8 mi Calm Calm - N/A   Overcast
7:01 PM 35.6 °F - 35.6 °F 100% 30.34 in 1.0 mi Calm Calm - N/A   Overcast
7:36 PM 35.6 °F - 35.6 °F 100% 30.33 in 1.0 mi Calm Calm - 0.00 in   Overcast
7:48 PM 37.4 °F - 35.6 °F 93% 30.32 in 0.8 mi Calm Calm - 0.00 in   Overcast
7:53 PM 36.0 °F - 36.0 °F 100% 30.32 in 0.8 mi Calm Calm - 0.00 in   Overcast
8:05 PM 37.4 °F 34.9 °F 35.6 °F 93% 30.31 in 0.5 mi NE 3.5 mph - N/A Fog Fog
8:39 PM 37.4 °F 34.9 °F 37.4 °F 100% 30.31 in 0.8 mi NE 3.5 mph - 0.01 in   Overcast
8:53 PM 37.0 °F - 37.0 °F 100% 30.31 in 0.8 mi Calm Calm - 0.01 in   Mist
9:45 PM 37.4 °F - 37.4 °F 100% 30.29 in 1.2 mi Calm Calm - 0.00 in   Overcast
9:53 PM 37.0 °F - 37.0 °F 100% 30.29 in 1.2 mi Calm Calm - 0.00 in   Overcast
10:27 PM 37.4 °F 34.9 °F 37.4 °F 100% 30.28 in 2.0 mi NW 3.5 mph - N/A   Overcast
10:53 PM 37.9 °F - 37.9 °F 100% 30.27 in 2.0 mi Calm Calm - N/A   Overcast
11:00 PM 37.4 °F - 37.4 °F 100% 30.26 in 1.0 mi Calm Calm - N/A   Overcast
11:05 PM 37.4 °F - 37.4 °F 100% 30.26 in 0.8 mi Calm Calm - N/A   Mist
11:53 PM 37.9 °F - 37.9 °F 100% 30.23 in 0.5 mi Calm Calm - N/A Fog Fog